Erie, PA

11:43 PM EDT on March 23, 2017 (GMT -0400)
Erie International

Weather History for KERI - October, 2012

Change the Weather History Date:

Wednesday, October 10, 2012

  Actual Average Record
Temperature  
Mean Temperature 48 °F 55 °F  
Max Temperature 53 °F 63 °F 88 °F (1949)
Min Temperature 43 °F 47 °F 29 °F (1972)
Degree Days  
Heating Degree Days 17 11  
Month to date heating degree days 106 92  
Since 1 July heating degree days 230 216  
Cooling Degree Days 0 0  
Month to date cooling degree days 3 7  
Year to date cooling degree days 890 636  
Moisture  
Dew Point 40 °F    
Average Humidity 71    
Maximum Humidity 93    
Minimum Humidity 49    
Precipitation  
Precipitation 0.45 in 0.14 in 1.56 in (1979)
Month to date precipitation 2.64 1.45  
Year to date precipitation 27.67 31.89  
Snow  
Snow 0.00 in 0.00 in - ()
Month to date snowfall 0.0 0.0  
Since 1 July snowfall 0.0 0.0  
Since 1 September snowfall 0.0 0.0  
Snow Depth 0.00 in    
Sea Level Pressure  
Sea Level Pressure 29.92 in    
Wind  
Wind Speed 15 mph (WSW)    
Max Wind Speed 28 mph    
Max Gust Speed 40 mph    
Visibility 7 miles    
Events Rain    
T = Trace of Precipitation, MM = Missing Value Source: NWS Daily Summary

Daily Weather History Graph

Daily Weather History Graph

Search for Another Location

Airport or City:

Trip Planner

Search our weather history database for the weather conditions in past years. The results will help you decide how hot, cold, wet, or windy it might be!

Date:

Astronomy

Oct. 10, 2012 Rise Set
Actual Time 7:28 AM EDT 6:46 PM EDT
Civil Twilight 7:00 AM EDT 7:14 PM EDT
Nautical Twilight 6:27 AM EDT 7:46 PM EDT
Astronomical Twilight 5:55 AM EDT 8:19 PM EDT
Moon 1:57 AM EDT (10/10) 3:52 PM EDT (10/10)
Length of Visible Light 12h 14m
Length of Day
11h 18m
Waning Crescent, 27% of the Moon is Illuminated
Oct 10
Waning Crescent
Oct 15
New
Oct 21
First Quarter
Oct 29
Full
Nov 6
Last Quarter

Hourly Weather History & Observations

Time (EDT) Temp. Windchill Dew Point Humidity Pressure Visibility Wind Dir Wind Speed Gust Speed Precip Events Conditions
12:51 AM 48.9 °F - 37.9 °F 66% 29.94 in 10.0 mi South 13.8 mph - N/A   Clear
1:51 AM 48.9 °F - 37.9 °F 66% 29.93 in 10.0 mi South 15.0 mph 21.9 mph N/A   Clear
2:51 AM 48.0 °F - 39.0 °F 71% 29.91 in 10.0 mi South 15.0 mph 24.2 mph N/A   Clear
3:51 AM 48.0 °F - 39.9 °F 74% 29.89 in 10.0 mi South 13.8 mph 25.3 mph N/A   Clear
4:51 AM 48.0 °F - 39.9 °F 74% 29.87 in 10.0 mi South 13.8 mph - N/A   Clear
5:51 AM 48.9 °F - 39.9 °F 71% 29.85 in 10.0 mi SSW 17.3 mph 25.3 mph N/A   Scattered Clouds
6:51 AM 48.9 °F - 39.9 °F 71% 29.83 in 10.0 mi South 17.3 mph - N/A   Mostly Cloudy
7:51 AM 48.9 °F - 39.9 °F 71% 29.84 in 10.0 mi SSW 13.8 mph - N/A   Overcast
8:51 AM 50.0 °F - 41.0 °F 71% 29.84 in 10.0 mi SSW 16.1 mph 25.3 mph N/A   Overcast
9:13 AM 50.0 °F - 41.0 °F 71% 29.84 in 10.0 mi SSW 15.0 mph 25.3 mph N/A   Overcast
9:51 AM 48.2 °F - 42.8 °F 82% 29.85 in 5.0 mi SW 11.5 mph 17.3 mph N/A Rain Rain
10:24 AM 46.4 °F 41.1 °F 44.6 °F 93% 29.87 in 2.5 mi SW 11.5 mph 17.3 mph 0.06 in Rain Rain
10:36 AM 46.4 °F 41.5 °F 44.6 °F 93% 29.87 in 3.0 mi SW 10.4 mph 18.4 mph 0.08 in Rain Rain
10:43 AM 46.4 °F 40.7 °F 44.6 °F 93% 29.87 in 2.5 mi SW 12.7 mph - 0.11 in Rain Rain
10:51 AM 46.9 °F - 44.1 °F 90% 29.88 in 2.0 mi SW 10.4 mph - 0.11 in Rain Rain
10:54 AM 46.4 °F 42.9 °F 44.6 °F 93% 29.88 in 1.5 mi WSW 6.9 mph 17.3 mph 0.03 in Rain Heavy Rain
10:56 AM 46.4 °F 42.4 °F 44.6 °F 93% 29.88 in 1.5 mi WSW 8.1 mph - 0.05 in Rain Heavy Rain
11:00 AM 46.4 °F 42.9 °F 44.6 °F 93% 29.88 in 1.5 mi WSW 6.9 mph - 0.06 in Rain Heavy Rain
11:04 AM 46.4 °F 42.9 °F 44.6 °F 93% 29.88 in 2.0 mi West 6.9 mph - 0.07 in Rain Rain
11:12 AM 46.4 °F 40.7 °F 44.6 °F 93% 29.88 in 3.0 mi West 12.7 mph 20.7 mph 0.08 in Rain Light Rain
11:20 AM 48.2 °F - 42.8 °F 82% 29.88 in 6.0 mi West 15.0 mph 21.9 mph 0.08 in Rain Light Rain
11:51 AM 48.0 °F - 42.1 °F 80% 29.90 in 7.0 mi West 12.7 mph - 0.10 in Rain Light Rain
12:51 PM 50.0 °F - 39.9 °F 68% 29.92 in 10.0 mi West 11.5 mph 19.6 mph 0.02 in   Overcast
1:51 PM 52.0 °F - 39.0 °F 61% 29.91 in 10.0 mi West 9.2 mph 23.0 mph N/A   Overcast
2:51 PM 51.1 °F - 37.9 °F 61% 29.90 in 10.0 mi West 12.7 mph 25.3 mph N/A   Overcast
3:51 PM 46.0 °F 42.5 °F 42.1 °F 86% 29.93 in 9.0 mi WSW 6.9 mph - 0.01 in Rain Light Rain
4:51 PM 51.1 °F - 36.0 °F 56% 29.94 in 10.0 mi West 13.8 mph 26.5 mph 0.00 in   Overcast
5:51 PM 45.0 °F 40.1 °F 41.0 °F 86% 29.95 in 10.0 mi SSW 9.2 mph - 0.01 in Rain Light Rain
6:48 PM 44.6 °F 37.8 °F 39.2 °F 81% 29.98 in 2.0 mi WSW 15.0 mph 27.6 mph 0.10 in Rain Heavy Rain
6:51 PM 44.1 °F 37.7 °F 39.9 °F 85% 29.99 in 2.0 mi West 12.7 mph 26.5 mph 0.11 in Rain Heavy Rain
7:07 PM 44.6 °F 38.8 °F 37.4 °F 76% 29.98 in 5.0 mi WSW 11.5 mph 24.2 mph 0.07 in Rain Light Rain
7:51 PM 48.0 °F - 36.0 °F 63% 30.00 in 10.0 mi WNW 18.4 mph 34.5 mph 0.09 in   Overcast
8:51 PM 48.0 °F - 33.1 °F 56% 30.04 in 10.0 mi West 19.6 mph 38.0 mph N/A   Overcast
9:51 PM 46.9 °F - 28.9 °F 50% 30.07 in 10.0 mi West 16.1 mph 36.8 mph N/A   Overcast
10:51 PM 46.9 °F - 28.9 °F 50% 30.11 in 10.0 mi WNW 19.6 mph 33.4 mph N/A   Overcast
11:51 PM 45.0 °F 36.4 °F 27.0 °F 49% 30.12 in 10.0 mi WNW 23.0 mph 38.0 mph N/A   Overcast